SBUDNIC (52774 NORAD) Tracking and Keplerian Element Data

This shows tracking and keplerian element data for the satellite.

Feedback or suggestion? Click here.




ElementValue
Catalog52774
NameSBUDNIC
Epoch Orbit1547
Epoch Day248.0307626
Epoch Year2022
RAAN1.8561
Inclination97.5225
Eccentricity0.0006636
Argument of Perigee245.7343
Mean Anonmoly114.3196
Mean Motion15.15698734
Decay Rate0.00019736
L11 52774U 22057AU 22248.03076260 .00019736 00000+0 10374-2 0 9995
L22 52774 97.5225 1.8561 0006636 245.7343 114.3196 15.15698734 15478

Live tracking and technical data element details for SBUDNIC (NORAD 52774). SBUDNIC can be tracked NOW for your location showing map with azimuth and elevation plus other details from your city location.

Track the satellite on the map from your city or location and see movement details for azimuth, elevation, latitude, longitude, range, height, and movement on the map or in text.







IsCatalogInMostPopularTable: catalog: 52774, numindb: 6
Update: records affected: 1



GetName: 52774 SBUDNIC

Hit Count: updated at: Sun, 25 Sep 2022 08:28:36 GMT